Hourly Weather Roundup
Issued by NWS Central Illinois

Home | Current Version | Previous Version | Text Only | Print | Product List | Glossary On
Versions: 1 2 3 4 5 6 7 8 9 10 11 12 13 14 15 16 17 18 19 20 21 22 23 24 25 26 27 28 29 30 31 32 33 34 35 36 37 38 39 40 41 42 43 44 45 46 47 48 49 50
000
NZUS43 KILX 051610
HWRILX

AREA WEATHER ROUNDUP
NATIONAL WEATHER SERVICE, LINCOLN IL
1000 AM CST THU MAR 05 2015


CITY           SKY/WX    TMP DP  RH WIND       PRES   REMARKS
BLOOMINGTON    SUNNY     12   1  61 NW12      30.50R WCI  -2
CHAMPAIGN      SUNNY     12   2  64 NW13      30.48R WCI  -3
DECATUR        SUNNY     14   3  61 N12       30.51R WCI   0
EFFINGHAM      SUNNY     17   0  47 NW12      30.51S WCI   4
FLORA          SUNNY     17   4  56 NW10      30.50R WCI   5
GALESBURG      SUNNY      7  -2  69 W12       30.54S WCI  -9
JACKSONVILLE   SUNNY     15   0  53 NW7       30.56R WCI   5
LACON          SUNNY      8  -2  62 NW6       30.53S WCI  -2
LAWRENCEVILLE  SUNNY     20   7  57 NW13      30.48R WCI   7
LITCHFIELD     SUNNY     14   2  58 N13       30.54R WCI  -1
$$


CITY           SKY/WX    TMP DP  RH WIND       PRES   REMARKS
LINCOLN        SUNNY     15   4  60 NW6       30.56R WCI   7
MACOMB         SUNNY      9   1  69 NW14      30.58R WCI  -8
MATTOON        SUNNY     13   3  64 NW15      30.47R WCI  -3
MT CARMEL AP   SUNNY     21   5  49 NW14      30.47R WCI   8
OLNEY-NOBLE AP SUNNY     18   5  57 NW9       30.50R WCI   6
PARIS          SUNNY     14   4  64 NW10      30.47S WCI   1
PEORIA         SUNNY     11  -2  56 W8        30.54R WCI  -1
PONTIAC        SUNNY     10   2  69 NW10      30.51R WCI  -4
RANTOUL        SUNNY     12   3  67 NW13      30.47R WCI  -3
ROBINSON       SUNNY     16   6  64 NW10      30.49R WCI   4
SPRINGFIELD    SUNNY     15  -2  46 N15       30.54R WCI   0
TAYLORVILLE    SUNNY     14   3  62 NW10      30.53S WCI   1
$$

...REGIONAL REPORTS...


CITY           SKY/WX    TMP DP  RH WIND       PRES   REMARKS
CHICAGO O`HARE MOSUNNY   13  -5  44 NW10      30.45F WCI   0
KANKAKEE       SUNNY     14   0  53 NW10      30.48R WCI   1
MOLINE         SUNNY      6  -4  63 NW9       30.56R WCI  -8
MOUNT VERNON   SUNNY     19   1  45 N10G17    30.50R WCI   8
PITTSFIELD     SUNNY     15   4  62 NW7       30.57R WCI   5
QUINCY         SUNNY     11  -2  56 NW12      30.57R WCI  -3
ROCKFORD       SUNNY      9  -6  50 W6        30.51S WCI  -1
$$


CITY           SKY/WX    TMP DP  RH WIND       PRES   REMARKS
BURLINGTON     SUNNY      8  -2  63 NW9       30.57R WCI  -5
CEDAR RAPIDS   SUNNY      1  -6  72 NW7       30.55R WCI -12
DES MOINES     MOSUNNY    8  -7  50 VRB3      30.58S
KIRKSVILLE     MOSUNNY   14   3  61 N9        30.57  WCI   2
OTTUMWA        SUNNY      9  -5  53 NW9       30.58R WCI  -4
ST LOUIS       MOSUNNY   20   4  50 N10       30.56R WCI   9
$$


CITY           SKY/WX    TMP DP  RH WIND       PRES   REMARKS
TERRE HAUTE    SUNNY     17   4  56 N9        30.45R WCI   6
EVANSVILLE     MOSUNNY   21   6  52 N12       30.46R WCI   9
INDIANAPOLIS   MOSUNNY   20   7  57 N7        30.38S WCI  11
LAFAYETTE      SUNNY     15   4  61 VRB5      30.45R WCI   8
MADISON        SUNNY      7  -9  48 N8        30.49S WCI  -6
MILWAUKEE      SUNNY     11  -8  42 NW10      30.47R WCI  -3
$$





USA.gov is the U.S. government's official web portal to all federal, state and local government web resources and services.